Date,TemperatureHighF,TemperatureAvgF,TemperatureLowF,DewpointHighF,DewpointAvgF,DewpointLowF,HumidityHigh,HumidityAvg,HumidityLow,PressureMaxIn,PressureMinIn,WindSpeedMaxMPH,WindSpeedAvgMPH,GustSpeedMaxMPH,PrecipitationSumIn
2013-1-1,48,42,38,37,30,24,74,63,49,30.00,29.88,8,2,12,0.00
2013-1-2,41,36,31,32,29,20,82,76,62,30.20,29.96,4,1,6,0.00
2013-1-3,39,33,30,24,20,16,70,58,48,30.22,30.12,5,2,7,0.00
2013-1-4,46,35,0,23,20,0,67,55,38,30.21,30.11,7,3,11,0.00
2013-1-5,49,38,0,31,22,0,75,51,30,30.35,30.15,6,3,8,0.02
2013-1-6,50,42,0,31,29,0,78,60,45,30.15,30.02,7,3,11,0.03
2013-1-7,47,40,0,29,27,0,75,61,46,30.42,30.14,6,2,8,0.00
2013-1-8,50,38,29,35,30,25,86,74,54,30.41,30.32,8,3,10,0.00
2013-1-9,58,49,36,48,40,28,92,73,39,30.40,30.26,7,3,11,0.00
2013-1-10,59,50,0,33,28,0,56,44,33,30.56,30.38,5,2,7,0.00
2013-1-11,44,41,0,40,36,0,97,82,54,30.46,30.08,5,2,7,0.05
2013-1-12,54,45,38,49,43,38,100,93,79,30.16,30.07,4,1,6,0.01
2013-1-13,64,55,46,60,53,45,100,93,85,30.11,29.99,6,3,14,0.01
2013-1-14,60,52,39,60,50,37,97,93,84,30.27,29.98,9,4,26,0.33
2013-1-15,39,36,35,38,36,34,97,96,95,30.31,30.08,15,3,108,1.30
2013-1-16,42,38,34,41,37,33,98,97,96,30.12,29.86,10,3,69,0.27
2013-1-17,43,37,32,42,36,31,98,97,95,30.12,29.96,13,2,84,0.59
2013-1-18,42,33,0,32,24,0,97,71,35,30.46,30.11,7,3,21,0.14
2013-1-19,51,36,27,35,28,23,87,73,49,30.39,29.97,8,4,12,0.01
2013-1-20,58,45,35,34,24,10,77,46,26,30.05,29.87,10,5,16,0.00
2013-1-21,53,38,28,24,14,6,46,36,28,30.06,29.77,12,4,19,0.00
2013-1-22,28,22,16,9,0,-5,48,38,25,30.24,29.93,9,4,13,0.00
2013-1-23,30,21,0,17,3,-1,88,47,26,30.29,30.03,7,3,11,0.00
2013-1-24,26,20,0,16,7,0,91,60,35,30.49,30.01,10,4,17,0.03
2013-1-25,22,18,0,18,11,0,90,72,51,30.46,30.02,7,2,13,0.01
2013-1-26,36,27,18,25,21,16,100,76,61,30.41,30.02,6,2,7,0.01
2013-1-27,37,30,0,24,21,0,88,71,57,30.56,30.40,6,2,8,0.01
2013-1-28,47,38,29,41,34,23,97,88,77,30.41,30.08,8,3,10,0.22
2013-1-29,73,56,0,56,48,0,94,76,55,30.13,29.96,8,4,13,0.01
2013-1-30,68,59,0,62,56,0,98,90,80,29.96,29.26,12,6,21,1.90
2013-1-31,56,39,0,54,27,0,95,60,43,29.90,29.27,14,7,23,0.15
2013-2-1,31,25,17,27,10,3,90,53,33,30.35,29.76,12,4,19,0.00
2013-2-2,32,23,0,25,13,0,93,67,44,30.35,29.94,6,2,9,0.00
2013-2-3,40,30,0,28,22,0,92,72,50,29.95,29.79,8,3,15,0.01
2013-2-4,35,30,0,21,16,0,66,57,47,30.08,29.87,6,2,9,0.01
2013-2-5,55,41,31,35,29,21,72,63,44,29.92,29.81,8,4,12,0.00
2013-2-6,53,41,0,33,28,0,81,62,37,30.36,29.91,7,2,11,0.00
2013-2-7,38,34,0,30,25,0,91,69,59,30.39,30.11,5,1,9,0.00
2013-2-8,50,37,0,40,30,0,96,78,57,30.11,29.75,12,4,24,0.24
2013-2-9,47,37,0,23,15,0,62,41,25,30.36,29.94,11,4,21,0.01
2013-2-10,44,36,0,29,19,0,76,50,36,30.45,30.18,6,2,9,0.01
2013-2-11,55,45,0,50,38,0,97,80,28,30.19,29.77,11,4,19,0.05
2013-2-12,61,50,41,29,25,17,52,39,26,29.98,29.83,16,4,28,0.01
2013-2-13,47,39,34,35,30,23,95,73,39,29.92,29.63,6,2,11,0.03
2013-2-14,52,40,0,33,28,0,95,62,35,30.01,29.80,6,2,8,0.03
2013-2-15,61,45,34,38,32,27,84,61,36,30.03,29.87,8,3,13,0.03
2013-2-16,40,34,27,35,27,14,95,76,55,29.98,29.82,11,2,15,0.04
2013-2-17,29,24,20,16,7,2,70,48,33,30.22,29.85,12,5,18,0.01
2013-2-18,46,32,18,24,13,5,62,48,25,30.34,30.11,8,3,10,0.00
2013-2-19,45,37,33,41,28,18,94,72,46,30.12,29.74,11,5,18,0.17
2013-2-20,45,34,27,19,15,12,55,46,31,30.12,29.86,11,4,18,0.02
2013-2-21,44,32,24,19,15,12,61,50,34,30.30,30.10,7,2,12,0.00
2013-2-22,36,32,30,28,23,16,85,69,55,30.33,30.13,4,1,7,0.01
2013-2-23,52,38,31,41,34,28,95,85,66,30.16,29.80,3,1,5,0.01
2013-2-24,57,42,0,42,30,0,97,66,28,30.10,29.79,10,3,14,0.01
2013-2-25,43,34,27,21,19,16,65,53,38,30.21,30.09,8,2,10,0.01
2013-2-26,41,35,0,40,30,0,97,83,58,30.18,29.57,8,3,15,0.94
2013-2-27,54,44,37,44,36,32,97,74,48,29.70,29.55,8,3,14,0.07
2013-2-28,45,40,36,33,28,25,73,63,46,29.76,29.63,8,4,15,0.00
2013-3-1,41,37,0,29,26,0,69,63,54,29.89,29.75,6,2,10,0.00
2013-3-2,37,32,30,25,22,18,70,63,56,29.88,29.80,6,2,9,0.00
2013-3-3,44,32,26,21,17,13,67,54,37,29.93,29.79,9,4,14,0.00
2013-3-4,50,2,-148,18,-10,-100,62,39,21,30.03,29.92,8,2,13,0.00
2013-3-5,48,39,0,33,23,0,95,54,36,30.05,29.67,5,1,8,0.09
2013-3-6,32,31,31,30,30,30,96,96,95,29.69,29.57,0,0,0,0.09
2013-3-9,58,49,38,28,24,19,61,38,26,30.33,30.24,6,1,10,0.00
2013-3-10,64,51,39,34,26,21,53,39,28,30.30,30.18,8,2,11,0.00
2013-3-11,59,50,40,50,38,25,84,64,38,30.21,29.90,8,3,13,0.02
2013-3-12,64,54,0,57,46,0,98,75,46,29.95,29.70,9,4,14,1.45
2013-3-13,50,41,31,29,24,16,69,53,35,30.09,29.90,11,4,19,0.01
2013-3-14,50,37,27,20,16,13,60,43,25,30.15,30.03,10,5,20,0.00
2013-3-15,59,46,33,35,25,15,55,44,34,30.11,29.80,8,3,14,0.00
2013-3-16,68,53,42,54,43,33,91,71,52,29.87,29.60,9,3,14,0.27
2013-3-17,42,36,32,38,34,30,95,91,84,30.24,29.87,5,2,10,0.08
2013-3-18,32,31,31,31,30,29,96,96,95,30.26,29.88,4,1,6,0.29
2013-3-19,62,43,31,44,27,9,98,62,19,29.96,29.72,12,4,23,0.22
2013-3-20,54,43,0,20,13,0,40,29,21,30.01,29.75,11,4,17,0.01
2013-3-21,40,33,26,28,15,8,71,49,33,29.92,29.75,11,5,18,0.00
2013-3-22,51,36,24,21,15,9,60,44,27,29.98,29.87,9,3,15,0.00
2013-3-23,57,43,33,25,19,14,57,39,26,30.04,29.88,6,2,11,0.00
2013-3-24,44,35,30,30,25,19,95,69,39,29.98,29.63,7,2,11,0.00
2013-3-25,39,34,30,34,31,26,96,89,73,29.70,29.51,6,1,9,0.48
2013-3-26,44,38,33,31,27,25,77,65,48,30.03,29.70,8,3,12,0.12
2013-3-27,49,40,32,28,25,22,76,58,38,30.15,30.03,11,5,21,0.01
2013-3-28,50,41,34,28,25,23,65,53,39,30.24,30.11,11,5,19,0.00
2013-3-29,57,47,38,31,26,23,62,46,29,30.27,30.13,7,2,11,0.00
2013-3-30,62,51,40,32,28,24,58,42,28,30.23,30.07,8,2,11,0.00
2013-3-31,53,47,42,49,40,28,94,77,44,30.08,29.75,7,2,8,0.04
2013-4-1,64,53,41,48,37,22,83,57,36,29.99,29.78,12,5,21,0.01
2013-4-2,53,43,33,23,16,10,55,36,18,30.16,29.99,10,4,18,0.00
2013-4-3,56,43,33,21,14,10,48,32,18,30.35,30.16,10,4,17,0.00
2013-4-4,47,37,29,33,20,12,94,54,27,30.40,30.03,6,2,8,0.24
2013-4-5,65,48,34,43,34,28,97,65,28,30.03,29.85,8,2,13,0.49
2013-4-6,58,49,38,30,23,13,52,36,21,30.30,30.03,11,3,13,0.01
2013-4-7,72,55,37,44,37,26,69,53,35,30.25,30.01,9,4,16,0.00
2013-4-8,81,66,51,51,46,42,71,50,29,30.10,29.97,10,4,16,0.00
2013-4-9,86,73,60,57,53,50,72,51,33,30.12,29.99,7,4,12,0.00
2013-4-10,92,78,65,59,55,52,67,47,31,30.03,29.85,8,4,12,0.00
2013-4-11,87,74,64,61,57,54,71,57,38,29.90,29.75,9,4,15,0.00
2013-4-12,82,69,60,66,56,39,97,68,37,29.76,29.58,10,4,17,0.90
2013-4-13,73,61,50,42,36,28,60,41,24,29.96,29.74,9,3,14,0.01
2013-4-14,76,64,52,44,36,28,55,37,28,30.10,29.96,6,3,9,0.00
2013-4-15,60,55,0,54,50,0,96,85,55,30.27,30.08,5,1,8,0.38
2013-4-16,72,61,53,61,56,52,97,86,66,30.31,30.16,5,2,8,0.10
2013-4-17,83,70,60,64,59,57,91,72,44,30.22,30.11,7,2,12,0.02
2013-4-18,78,66,59,65,59,56,96,80,52,30.20,30.00,7,2,12,0.12
2013-4-19,73,65,54,66,61,44,96,87,69,30.00,29.64,8,4,15,0.63
2013-4-20,62,53,43,45,32,26,72,47,28,30.30,29.75,7,3,16,0.09
2013-4-21,55,46,38,34,29,26,66,51,39,30.55,30.30,7,2,13,0.00
2013-4-22,58,47,35,39,33,26,80,60,43,30.53,30.33,8,2,14,0.00
2013-4-23,65,53,45,48,42,37,80,66,49,30.36,30.10,6,2,10,0.00
2013-4-24,78,62,46,58,51,44,93,71,43,30.12,29.84,10,3,16,0.05
2013-4-25,68,56,43,54,36,27,85,50,26,30.29,29.98,6,2,12,0.05
2013-4-26,69,57,46,41,35,26,63,44,32,30.44,30.29,5,1,9,0.00
2013-4-27,74,59,47,48,43,38,76,56,33,30.39,30.25,4,1,6,0.00
2013-4-28,57,53,50,54,47,42,93,80,66,30.27,30.11,3,0,5,0.06
2013-4-29,64,56,51,58,53,48,97,92,77,30.15,29.99,4,1,7,0.41
2013-4-30,63,57,53,57,54,52,96,89,74,30.27,30.06,6,2,13,0.03
2013-5-1,71,60,51,53,46,35,96,66,31,30.39,30.25,7,2,13,0.05
2013-5-2,70,57,46,50,45,42,90,65,44,30.40,30.30,6,2,11,0.01
2013-5-3,67,55,46,52,46,40,93,73,44,30.36,30.23,6,1,12,0.00
2013-5-4,66,52,42,51,44,39,88,74,57,30.30,30.14,7,2,11,0.00
2013-5-5,63,52,40,47,42,35,86,69,52,30.21,30.09,9,2,13,0.00
2013-5-6,58,53,49,58,51,46,98,93,75,30.13,29.95,8,3,15,0.45
2013-5-7,66,57,53,62,56,52,98,96,85,29.97,29.85,9,2,14,1.36
2013-5-8,63,56,52,58,54,51,98,94,83,30.01,29.93,4,0,7,0.66
2013-5-9,77,63,49,63,54,48,97,77,43,30.04,29.93,3,1,6,0.01
2013-5-10,84,71,62,65,57,50,92,63,42,30.04,29.89,7,2,12,0.04
2013-5-11,79,67,61,66,60,56,94,80,52,29.90,29.74,5,2,10,0.04
2013-5-12,67,60,49,56,41,30,75,52,29,30.05,29.78,7,2,14,0.00
2013-5-13,61,51,44,36,32,28,64,49,32,30.17,30.04,5,1,11,0.00
2013-5-14,70,55,39,44,37,30,78,53,32,30.21,30.01,6,1,13,0.00
2013-5-15,87,69,51,66,54,42,79,61,46,30.03,29.76,6,2,14,0.00
2013-5-16,86,73,64,67,59,51,94,63,43,29.98,29.83,11,2,20,0.45
2013-5-17,83,72,63,65,60,54,88,67,38,30.14,29.96,4,1,5,0.02
2013-5-18,65,61,0,61,60,0,97,94,85,30.22,30.13,4,1,6,0.37
2013-5-19,66,62,59,64,61,59,98,97,95,30.20,30.08,4,0,7,0.22
2013-5-20,81,70,63,71,66,62,98,89,66,30.12,30.00,4,1,5,0.17
2013-5-21,86,74,65,73,68,64,98,84,61,30.02,29.91,4,1,7,0.01
2013-5-22,86,75,67,74,68,62,97,81,59,29.97,29.87,6,2,10,0.00
2013-5-23,81,69,61,70,65,60,96,88,67,29.94,29.78,5,1,10,0.62
2013-5-24,63,59,48,60,48,33,96,70,44,30.17,29.79,8,3,16,0.24
2013-5-25,68,54,40,43,35,30,77,52,24,30.25,30.11,6,2,15,0.00
2013-5-26,75,61,49,46,38,33,69,45,24,30.25,30.14,4,1,8,0.00
2013-5-27,69,60,51,53,45,35,76,57,43,30.29,30.18,2,0,4,0.00
2013-5-28,85,69,54,69,60,50,89,74,52,30.21,30.08,7,2,11,0.00
2013-5-29,88,76,63,72,66,61,94,73,50,30.17,30.11,5,2,10,0.00
2013-5-30,89,77,66,72,65,61,87,68,43,30.22,30.15,4,2,6,0.00
2013-5-31,88,77,65,72,65,60,87,68,47,30.19,30.08,5,2,10,0.00
2013-6-1,90,78,66,72,66,62,89,70,50,30.09,29.97,6,2,11,0.00
2013-6-2,78,72,67,72,67,63,96,84,73,29.97,29.88,5,2,10,0.02
2013-6-3,82,72,66,71,66,62,98,82,55,29.99,29.85,5,1,8,0.47
2013-6-4,77,68,59,62,53,44,89,62,33,30.15,29.99,5,1,9,0.01
2013-6-5,79,69,61,64,57,49,80,66,55,30.18,30.06,3,0,5,0.00
2013-6-6,66,62,59,64,59,53,98,89,69,30.08,29.85,4,0,7,2.26
2013-6-7,69,65,62,68,64,62,98,97,93,29.85,29.63,4,0,8,1.74
2013-6-8,82,71,64,67,62,58,96,77,51,30.10,29.78,4,1,6,0.01
2013-6-9,80,71,63,72,66,61,96,86,70,30.20,30.09,4,1,9,1.34
2013-6-10,80,71,66,75,69,65,98,95,79,30.12,29.83,6,2,12,1.82
2013-6-11,82,72,64,70,65,61,98,79,56,29.92,29.84,5,2,11,0.03
2013-6-12,90,78,65,75,68,60,90,73,55,29.93,29.83,6,1,12,0.01
2013-6-13,88,74,65,74,67,57,94,80,59,29.84,29.57,7,2,17,0.34
2013-6-14,78,69,63,59,56,52,78,64,45,30.02,29.69,7,2,14,0.01
2013-6-15,83,72,0,64,57,0,77,61,40,30.12,30.02,4,1,7,0.00
2013-6-16,85,74,65,71,64,56,86,72,56,30.06,29.96,5,1,9,0.02
2013-6-17,87,72,64,73,66,62,96,83,58,30.01,29.92,10,1,17,1.40
2013-6-18,73,68,64,70,66,62,97,94,85,29.95,29.82,3,0,6,0.37
2013-6-19,77,68,62,67,64,60,97,87,68,30.16,29.91,5,1,8,0.01
2013-6-20,79,70,63,67,63,58,96,78,59,30.29,30.16,3,1,5,0.00
2013-6-21,82,72,60,65,58,49,82,63,48,30.30,30.24,4,0,7,0.00
2013-6-22,86,73,62,72,66,58,95,79,53,30.27,30.16,3,1,6,0.00
2013-6-23,85,76,68,75,69,66,95,82,59,30.22,30.12,3,1,5,0.00
2013-6-24,89,76,0,76,70,0,96,83,59,30.18,30.08,3,1,6,0.02
2013-6-25,91,79,70,75,70,65,92,76,53,30.09,29.96,3,1,5,0.01
2013-6-26,90,78,70,77,71,68,96,80,58,29.97,29.89,9,1,16,0.00
2013-6-28,90,88,74,75,73,60,62,62,62,29.64,29.52,4,2,8,0.00
2013-7-1,82,77,73,73,71,70,93,83,73,30.00,29.93,3,1,5,0.09
2013-7-2,75,72,69,72,70,68,98,94,87,30.19,29.99,4,1,7,0.21
2013-7-3,83,74,69,76,72,69,98,94,72,30.26,30.17,3,1,6,1.23
2013-7-4,86,77,71,77,72,0,98,88,64,30.29,30.20,5,2,9,0.09
2013-7-5,86,77,70,77,72,0,98,87,68,30.28,30.18,4,1,10,0.11
2013-7-6,88,78,71,77,72,0,97,83,64,30.24,30.13,6,1,12,0.01
2013-7-7,87,76,0,76,71,0,96,85,66,30.17,30.05,7,2,14,0.08
2013-7-8,87,74,68,73,69,66,97,86,57,30.16,30.10,5,0,9,0.82
2013-7-9,87,77,71,76,71,0,93,82,65,30.14,30.06,3,0,5,0.02
2013-7-10,88,75,71,80,73,70,97,92,71,30.08,29.93,6,1,11,0.92
2013-7-11,84,74,0,76,71,0,98,90,69,29.96,29.89,4,1,7,1.20
2013-7-12,68,68,67,67,66,66,97,96,95,30.08,30.02,3,0,4,0.00
2013-7-13,83,73,0,74,68,0,96,86,69,30.27,30.07,4,0,8,0.19
2013-7-14,87,78,71,76,72,0,98,83,62,30.37,30.27,3,0,5,0.19
2013-7-15,92,80,71,77,72,70,97,78,53,30.35,30.25,3,0,5,0.01
2013-7-16,92,82,74,78,74,0,91,77,58,30.29,30.21,4,1,7,0.07
2013-7-17,91,81,75,80,75,71,93,84,60,30.26,30.15,4,0,7,0.33
2013-7-18,93,83,75,81,75,72,93,79,63,30.19,30.07,3,0,6,0.01
2013-7-19,93,82,76,82,75,0,88,78,62,30.09,29.95,5,1,9,0.00
2013-7-20,92,79,73,78,73,68,94,82,58,29.99,29.89,4,1,8,0.00
2013-7-21,90,77,71,77,71,68,95,83,60,30.00,29.94,8,0,16,0.11
2013-7-22,87,77,70,78,72,69,98,87,70,29.99,29.81,4,1,8,0.01
2013-7-23,89,79,71,74,70,67,96,77,56,29.83,29.72,4,1,7,0.00
2013-7-24,85,75,68,73,68,65,96,80,60,29.96,29.73,6,1,9,0.28
2013-7-25,79,70,63,66,61,55,96,73,53,30.09,29.93,4,1,9,0.28
2013-7-26,82,71,60,67,62,57,94,75,52,30.14,30.06,4,1,7,0.00
2013-7-27,77,71,66,71,67,64,94,88,78,30.09,29.97,3,1,9,0.01
2013-7-28,84,73,67,73,69,65,97,88,58,30.03,29.93,3,1,6,0.57
2013-7-29,82,72,62,70,61,52,95,70,42,30.21,30.02,3,0,6,0.01
2013-7-30,84,72,63,66,61,54,86,69,48,30.27,30.18,3,0,8,0.00
2013-7-31,78,70,64,70,66,61,96,86,71,30.19,30.05,2,0,5,0.06
2013-8-1,84,71,67,73,68,0,98,91,64,30.05,29.85,4,0,7,0.68
2013-8-2,85,74,65,72,66,60,97,76,51,30.02,29.90,3,1,6,0.01
2013-8-3,82,72,67,70,65,59,93,77,59,30.01,29.95,3,0,5,0.03
2013-8-4,82,72,64,66,60,54,94,69,46,30.08,29.95,6,1,15,0.03
2013-8-5,81,69,0,64,58,0,83,69,45,30.13,30.03,3,1,6,0.00
2013-8-6,79,71,65,70,66,61,92,83,70,30.07,30.00,3,0,6,0.00
2013-8-7,82,74,68,74,70,66,96,88,73,30.09,30.03,4,1,9,0.00
2013-8-8,80,74,70,75,71,68,96,91,79,30.07,30.01,4,1,7,0.03
2013-8-9,90,79,71,78,73,70,98,83,61,30.01,29.92,6,2,10,0.02
2013-8-10,82,76,71,74,72,69,96,87,76,30.13,30.00,4,0,10,1.50
2013-8-11,82,73,0,75,70,0,97,90,72,30.14,30.04,3,0,5,0.22
2013-8-12,89,77,69,74,71,68,98,82,52,30.06,29.94,3,0,5,0.01
2013-8-13,86,75,71,75,71,67,97,88,61,29.95,29.79,4,1,8,0.33
2013-8-14,75,67,60,68,55,48,90,67,48,30.14,29.85,6,1,11,0.04
2013-8-15,75,64,55,58,53,0,86,69,48,30.21,30.11,5,0,10,0.00
2013-8-16,77,65,55,62,57,0,93,76,49,30.22,30.14,4,0,5,0.00
2013-8-17,74,65,57,62,59,0,95,82,60,30.27,30.20,5,1,8,0.01
2013-8-18,66,62,59,64,61,58,98,95,90,30.26,30.19,4,0,8,1.60
2013-8-19,74,67,61,70,65,0,99,94,84,30.21,30.10,2,0,5,0.03
2013-8-20,85,73,65,74,69,0,98,87,63,30.20,30.11,3,0,7,0.01
2013-8-21,86,75,67,76,70,66,98,86,62,30.23,30.11,4,0,6,0.01
2013-8-22,88,76,68,73,68,65,95,79,53,30.13,29.99,3,0,7,0.00
2013-8-23,73,68,62,70,65,60,97,91,83,30.14,29.97,7,1,13,0.86
2013-8-24,80,68,57,66,59,55,97,78,45,30.34,30.14,5,1,9,0.01
2013-8-25,81,69,59,67,61,56,93,77,50,30.42,30.30,3,0,5,0.00
2013-8-26,85,72,60,69,63,0,91,75,47,30.33,30.06,3,1,6,0.00
2013-8-27,90,77,67,76,67,61,84,73,57,30.07,29.95,3,1,7,0.00
2013-8-28,75,73,71,72,70,0,97,89,76,30.00,29.83,5,1,10,0.77
2013-8-29,82,74,70,72,70,68,98,87,69,30.05,29.84,6,1,10,0.10
2013-8-30,84,74,67,74,69,0,98,86,65,30.07,29.93,3,1,7,0.01
2013-8-31,88,74,68,77,70,66,97,87,64,29.96,29.84,6,1,13,0.80
2013-9-1,87,73,66,75,70,65,99,89,61,29.89,29.80,4,0,5,0.29
2013-9-2,89,77,69,75,71,68,97,82,58,29.87,29.78,2,1,5,0.01
2013-9-3,86,76,69,71,68,60,92,76,56,29.99,29.79,3,1,5,0.00
2013-9-4,81,70,59,65,61,56,93,75,54,30.12,29.98,3,0,6,0.00
2013-9-5,85,72,59,68,61,54,92,69,43,30.15,30.03,4,1,8,0.00
2013-9-6,76,66,57,58,54,0,86,68,45,30.26,30.14,6,1,11,0.00
2013-9-7,80,67,56,68,60,54,93,80,60,30.17,29.96,3,0,5,0.00
2013-9-8,87,74,63,71,65,56,94,73,53,30.05,29.91,4,0,9,0.00
2013-9-9,76,69,64,67,63,56,93,80,63,30.22,30.04,6,1,12,0.00
2013-9-10,90,76,66,77,70,64,97,82,62,30.21,30.13,3,0,7,0.00
2013-9-11,91,79,71,77,72,69,93,80,56,30.18,30.05,3,1,5,0.00
2013-9-12,90,78,70,76,70,0,96,80,58,30.05,29.79,5,1,8,0.00
2013-9-13,77,70,60,64,57,50,87,67,42,29.97,29.76,5,1,10,0.00
2013-9-14,68,59,51,50,47,43,85,65,47,30.17,29.96,5,1,11,0.00
2013-9-15,76,62,50,60,54,47,92,75,51,30.24,30.10,3,1,7,0.00
2013-9-16,68,63,58,63,58,52,92,85,69,30.24,30.08,4,0,7,0.01
2013-9-17,67,58,50,55,50,43,89,75,49,30.41,30.24,8,1,12,0.01
2013-9-18,70,57,45,54,48,43,95,76,47,30.34,30.19,4,0,5,0.00
2013-9-19,77,63,54,63,56,48,90,78,59,30.21,30.09,4,0,6,0.00
2013-9-20,74,66,58,66,61,0,95,86,71,30.11,29.97,2,0,4,0.00
2013-9-21,67,64,61,66,63,60,98,97,91,29.97,29.70,4,1,7,0.44
2013-9-22,73,63,0,60,56,0,97,79,52,29.96,29.75,4,0,8,0.36
2013-9-23,69,58,49,53,49,45,89,74,52,30.11,29.96,4,0,7,0.01
2013-9-24,72,60,0,59,53,0,92,78,57,30.11,29.96,3,0,5,0.00
2013-9-25,72,61,52,59,54,51,98,80,56,29.99,29.90,4,0,8,0.00
2013-9-26,75,63,57,56,54,51,89,73,47,30.09,29.92,4,1,8,0.00
2013-9-27,72,62,53,60,55,0,93,80,60,30.23,30.09,3,0,6,0.00
2013-9-28,65,60,55,58,55,54,95,86,70,30.31,30.22,4,0,7,0.00
2013-9-29,74,61,52,57,53,0,94,76,49,30.22,30.07,3,0,7,0.00
2013-9-30,76,63,52,60,55,50,94,77,53,30.10,30.00,4,0,6,0.00
2013-10-1,83,69,59,63,59,0,88,72,44,30.11,30.02,3,0,5,0.00
2013-10-2,84,71,60,63,59,56,85,69,42,30.13,30.04,3,0,6,0.00
2013-10-3,82,70,62,68,63,58,92,78,54,30.15,30.07,2,0,4,0.00
2013-10-4,87,73,64,68,64,61,94,76,49,30.13,30.06,3,0,5,0.00
2013-10-5,89,76,67,69,65,62,87,71,47,30.13,30.03,3,0,4,0.00
2013-10-6,86,74,64,70,65,62,95,77,51,30.05,29.93,4,1,8,0.00
2013-10-7,70,66,56,68,62,46,97,86,68,30.07,29.80,8,1,14,0.69
2013-10-8,65,56,49,50,46,0,86,71,50,30.28,30.07,7,1,15,0.01
2013-10-9,57,53,50,52,49,46,96,86,79,30.30,30.20,5,1,13,0.22
2013-10-10,56,54,50,56,53,49,98,97,96,30.20,29.99,6,1,15,1.07
2013-10-11,65,58,54,60,56,0,98,94,84,30.00,29.95,3,0,6,0.54
2013-10-12,61,60,58,61,59,57,98,97,95,30.16,29.98,5,1,10,0.29
2013-10-13,59,58,56,58,57,56,98,98,97,30.31,30.15,5,1,13,0.37
2013-10-14,66,59,55,59,56,54,98,91,74,30.33,30.22,4,0,9,0.13
2013-10-15,70,59,51,57,53,50,98,83,54,30.24,30.10,4,0,9,0.01
2013-10-16,72,62,57,63,58,53,94,86,70,30.11,29.94,3,0,9,0.01
2013-10-17,70,63,58,66,60,0,97,91,78,29.94,29.77,6,1,11,0.01
2013-10-18,68,57,49,54,46,41,81,67,41,30.04,29.85,6,1,10,0.01
2013-10-19,61,54,48,54,49,44,94,85,71,30.00,29.81,4,1,9,0.00
2013-10-20,65,52,42,48,39,34,82,62,34,30.11,29.89,5,1,9,0.00
2013-10-21,68,53,41,49,42,0,90,68,42,30.15,29.96,4,1,9,0.00
2013-10-22,70,57,49,51,47,0,91,70,47,29.96,29.80,6,1,13,0.03
2013-10-23,57,48,41,49,41,33,96,79,59,29.93,29.67,6,1,11,0.31
2013-10-24,54,44,38,36,32,26,76,63,47,30.15,29.93,8,2,13,0.01
2013-10-25,57,42,34,32,28,0,76,59,33,30.32,30.13,6,1,9,0.00
2013-10-26,57,44,0,35,29,0,76,57,36,30.31,29.96,5,2,11,0.00
2013-10-27,63,51,43,42,37,33,77,61,41,30.13,29.97,5,1,7,0.00
2013-10-28,63,48,42,54,39,33,82,72,43,30.26,30.12,2,0,4,0.00
2013-10-29,68,54,0,49,44,0,88,70,47,30.37,30.25,3,0,6,0.00
2013-10-30,71,58,50,59,52,44,93,80,63,30.33,30.14,3,0,5,0.02
2013-10-31,67,60,54,60,56,0,97,88,76,30.18,29.80,4,1,9,0.01
2013-11-1,77,66,60,62,59,0,94,79,44,29.80,29.63,9,3,13,0.06
2013-11-2,69,58,0,58,43,0,96,60,34,29.91,29.67,6,1,10,0.01
2013-11-3,58,48,40,38,32,25,70,54,30,30.40,29.91,6,1,13,0.00
2013-11-4,47,38,32,27,25,22,72,60,43,30.59,30.39,6,2,14,0.00
2013-11-5,52,43,34,44,33,25,91,69,50,30.59,30.44,3,0,5,0.00
2013-11-6,68,54,46,52,48,44,93,81,55,30.45,30.06,5,1,8,0.00
2013-11-7,63,53,41,56,44,24,92,73,47,30.11,29.90,8,2,14,0.01
2013-11-8,53,42,37,29,25,23,65,50,32,30.31,30.09,7,1,11,0.01
2013-11-9,57,43,33,30,27,24,74,54,35,30.33,30.04,6,2,9,0.00
2013-11-10,67,48,40,36,29,23,66,50,20,30.25,29.96,9,3,16,0.00
2013-11-11,61,46,38,31,28,26,63,49,27,30.30,29.99,6,2,13,0.00
2013-11-12,55,39,28,34,22,14,62,51,37,30.40,29.94,12,4,20,0.00
2013-11-13,43,34,28,19,15,10,62,48,33,30.48,30.36,7,2,10,0.00
2013-11-14,63,44,31,22,15,6,42,32,19,30.36,30.20,5,2,7,0.00
2013-11-15,61,48,37,46,29,18,94,51,27,30.26,30.16,5,2,7,0.24
2013-11-16,54,48,44,50,47,43,97,95,86,30.30,30.20,2,0,4,0.41
2013-11-17,58,54,50,58,53,49,98,98,97,30.22,29.74,9,2,15,0.07
2013-11-18,67,57,46,59,38,0,98,53,27,29.97,29.73,9,4,16,0.09
2013-11-19,49,42,34,28,26,24,69,54,41,30.36,29.96,9,3,13,0.00
2013-11-20,46,36,0,27,25,0,75,63,44,30.51,30.35,6,2,11,0.00
2013-11-21,47,41,34,39,34,26,82,77,70,30.53,30.35,3,1,5,0.00
2013-11-22,67,54,45,56,48,0,85,78,63,30.36,30.02,6,3,9,0.00
2013-11-23,59,46,29,49,29,14,79,54,24,30.20,30.01,10,4,16,0.00
2013-11-24,30,25,20,15,6,2,59,44,31,30.49,30.21,11,4,19,0.00
2013-11-25,37,26,19,14,10,0,64,49,32,30.52,30.29,6,2,9,0.00
2013-11-26,40,34,31,39,27,14,97,80,45,30.30,29.55,7,2,11,2.26
2013-11-27,41,36,25,40,30,12,97,80,55,30.10,29.48,13,4,20,1.43
2013-11-28,40,30,23,20,16,12,67,58,40,30.42,30.10,7,2,11,0.01
2013-11-29,43,32,26,24,20,17,73,61,43,30.67,30.40,6,1,8,0.00
2013-11-30,39,30,24,25,21,18,77,68,50,30.67,30.31,4,1,7,0.00
2013-12-1,53,39,25,32,26,20,82,62,41,30.30,29.97,4,1,6,0.00
2013-12-2,47,44,41,35,32,28,74,64,53,29.98,29.85,3,0,4,0.00
2013-12-3,57,46,38,41,37,0,82,72,53,29.99,29.86,4,0,6,0.00
2013-12-4,60,51,43,52,46,38,94,83,67,30.06,29.97,4,1,7,0.00
2013-12-5,63,58,53,61,56,52,98,94,89,30.07,29.93,7,3,10,0.00
2013-12-6,64,53,40,63,52,0,98,96,91,30.12,29.90,11,4,18,1.05
2013-12-7,42,37,30,39,32,24,97,85,70,30.50,30.10,8,3,11,0.58
2013-12-8,31,28,26,30,25,0,96,87,75,30.51,30.19,6,2,12,0.00
2013-12-9,36,33,31,36,32,0,98,97,96,30.22,29.99,6,0,9,0.40
2013-12-10,38,32,29,37,29,17,98,87,59,30.21,29.96,12,1,23,0.44
2013-12-11,44,34,27,24,19,14,66,55,39,30.37,30.21,6,2,8,0.06
2013-12-12,38,31,27,22,12,3,60,45,29,30.38,30.22,7,3,11,0.01
2013-12-13,48,36,27,21,14,10,52,42,28,30.28,30.19,8,3,13,0.00
2013-12-14,38,34,30,34,28,0,97,82,45,30.27,29.67,6,1,9,0.41
2013-12-15,49,38,32,40,30,24,98,76,49,29.95,29.62,11,4,16,0.05
2013-12-16,42,35,30,30,27,25,83,73,57,30.13,29.95,8,2,9,0.01
2013-12-17,52,36,27,38,30,24,90,80,56,30.10,29.88,9,2,15,0.01
2013-12-18,43,36,30,32,21,18,86,57,39,30.20,29.97,7,2,11,0.01
2013-12-19,61,45,31,32,26,18,65,48,31,30.17,30.09,8,4,12,0.00
2013-12-20,60,50,40,41,34,28,66,54,41,30.12,30.02,8,4,12,0.00
2013-12-21,68,58,49,59,50,40,89,76,62,30.05,29.92,10,4,19,0.00
2013-12-22,68,63,58,64,59,56,96,88,65,30.02,29.87,10,4,17,0.13
2013-12-23,61,53,36,60,48,26,98,85,62,30.20,29.93,9,4,13,0.08
2013-12-24,42,32,22,27,19,6,77,60,44,30.44,30.17,10,3,15,0.15
2013-12-25,33,24,17,14,11,7,78,58,43,30.52,30.30,6,2,8,0.07
2013-12-26,48,33,22,27,18,13,74,55,35,30.35,30.18,9,3,13,0.19
2013-12-27,52,40,32,23,19,16,56,44,29,30.41,30.30,5,2,8,0.03
2013-12-28,58,45,37,32,24,20,61,44,31,30.31,30.10,5,2,9,0.01
2013-12-29,52,44,0,48,39,0,97,84,64,30.10,29.59,12,3,17,1.72
2013-12-30,47,41,32,39,33,26,82,72,56,30.14,29.82,6,2,9,0.01
2013-12-31,46,35,28,31,23,15,90,63,39,30.30,30.11,13,2,19,0.00
2014-1-1,49,36,0,27,21,0,70,56,41,30.36,30.04,6,1,9,0.00
2014-1-2,37,32,29,31,27,23,96,81,65,30.08,29.59,5,1,8,0.08